Regional Weather Roundup
Issued by NWS San Diego, CA

Home | Current Version | Previous Version | Text Only | Print | Product List | Glossary On
Versions: 1 2 3 4 5 6 7 8 9 10 11 12 13 14 15 16 17 18 19 20 21 22 23 24 25 26 27 28 29 30 31 32 33 34 35 36 37 38 39 40 41 42 43 44 45 46 47 48 49 50
000
ASUS46 KSGX 270410
RWRSGX

SAN DIEGO HOURLY WEATHER ROUNDUP
NATIONAL WEATHER SERVICE SAN DIEGO CA
800 PM PST WED NOV 26 2014

NOTE: "FAIR" INDICATES FEW OR NO CLOUDS BELOW 12,000 FEET WITH NO
SIGNIFICANT WEATHER AND/OR OBSTRUCTIONS TO VISIBILITY.

CAZ042-043-060-061-PZZ750-775-270500-

GREATER SAN DIEGO AREA

CITY           SKY/WX    TMP DP  RH WIND       PRES   REMARKS
LINDBERGH FLD  CLEAR     68  49  50 CALM      30.13S
POINT LOMA       N/A     69  25  19 NW5         N/A
NATIONAL CITY    N/A     64  45  49 CALM      30.12S
CHULA VISTA      N/A     62  42  48 CALM      30.05S
IMPERIAL BEACH CLEAR     55  42  61 N3        30.12S
BROWN FIELD    CLEAR     62  29  28 E6        30.12S
MIRAMAR MCAS   CLEAR     66  30  26 N7        30.12S
MONTGOMERY FLD CLEAR     69  29  22 CALM      30.13S

$$

NORTH SAN DIEGO COUNTY

CITY           SKY/WX    TMP DP  RH WIND       PRES   REMARKS
CAMP PENDLETON CLEAR     56  28  34 NE3       30.13R
OCEANSIDE AP   CLEAR     55  40  56 CALM      30.12R
OCEANSIDE HBR    N/A     62  47  57 CALM      30.14S
VISTA            N/A     61  33  35 CALM      30.11S
CARLSBAD       CLEAR     65  33  30 NE3       30.12S
DEL MAR          N/A     66  38  35 CALM      30.14S
LA JOLLA SCRIP   N/A     70  39  32 CALM      30.09
FALLBROOK        N/A     72  21  14 CALM      30.13S
ESCONDIDO        N/A     65  38  37 CALM      30.15R
SAN MARCOS       N/A     69  30  24 CALM      30.11S
POWAY            N/A     59  38  45 W2        30.15S

$$

EAST SAN DIEGO COUNTY

CITY           SKY/WX    TMP DP  RH WIND       PRES   REMARKS
RAMONA         CLEAR     59  24  26 CALM      30.17S
SANTEE LAKES     N/A     64  27  24 CALM      30.14S
LA MESA          N/A     71  33  24 E3        30.06S
JAMUL            N/A     65  28  24 CALM      30.13S
DESCANSO N       N/A     70  15  12 E3        30.05F
MT. LAGUNA OBS   N/A     56  12  17 E17       29.90R
CAMPO            N/A     63  15  15 CALM      30.20S

$$

ORANGE COUNTY AND THE LOS ANGELES BASIN

CITY           SKY/WX    TMP DP  RH WIND       PRES   REMARKS
JOHN WAYNE AP  CLEAR     67  50  54 CALM      30.12S
LAKE FOREST FR   N/A     73  27  18 CALM      30.02F
SANTA ANA        N/A     60  49  66 CALM      30.08S
HUNTINGTON BCH   N/A     57  53  87 CALM      30.14S
LOS ALAMITOS   CLEAR     61  37  40 N3        30.13S
FULLERTON      CLEAR     63  41  44 CALM      30.13R
LONG BEACH     CLEAR     65  37  35 CALM      30.13R
L.A. AP        CLEAR     64  51  62 W7        30.13F
L.A. DOWNTOWN  CLEAR     64  45  49 CALM      30.12S

$$

THE INLAND EMPIRE

CITY           SKY/WX    TMP DP  RH WIND       PRES   REMARKS
CORONA         CLEAR     61  27  27 CALM      30.16R
CHINO          CLEAR     55  40  56 CALM      30.17R
ONTARIO        CLEAR     63  31  30 N3        30.16S
SAN BERNARDINO CLEAR    N/A N/A N/A E5        30.19R
RIVERSIDE AP   CLEAR     67  27  22 SE6       30.17R
RIV CYN CREST    N/A     69  37  30 CALM        N/A
MORENO VALLEY    N/A     69  29  22 CALM      29.37R
MARCH ARB      CLEAR     61  19  19 CALM      30.20R
HORSETHIEF CYN   N/A     69  15  12 S3        30.19S
PERRIS           N/A     72  29  20 CALM      30.19R
MENIFEE          N/A     66  29  24 NW3       30.23R
HEMET EAST       N/A     70  13  11 CALM      30.18R
FRENCH VALLEY  FAIR      61  27  27 CALM      30.19R
TEMECULA         N/A     62  34  35 CALM      30.14R

$$

SAN BERNARDINO AND RIVERSIDE COUNTY MOUNTAINS

CITY           SKY/WX    TMP DP  RH WIND       PRES   REMARKS
BIG BEAR AP    CLEAR     32  10  40 CALM      30.49S
PINE COVE        N/A     58  11  15 CALM      30.21S

$$

SOUTHERN DESERT INCLUDING THE COACHELLA VALLEY

CITY           SKY/WX    TMP DP  RH WIND       PRES   REMARKS
PALM SPRINGS   CLEAR     62  22  21 NW7       30.21S
PALM DESERT      N/A     59  36  41 CALM      28.84S
THERMAL        CLEAR     47  35  63 CALM      30.16S
BLYTHE         CLEAR     63  15  15 W5        30.18S
IMPERIAL AP    CLEAR     58  37  45 CALM      30.16S
EL CENTRO NAS  CLEAR     58  37  45 CALM      30.17R
YUMA AZ        CLEAR     62  30  29 W5        30.16S
MEXICALI       CLEAR     61  32  33 N6        30.17

$$

UPPER DESERT

CITY           SKY/WX    TMP DP  RH WIND       PRES   REMARKS
VICTORVILLE AP CLEAR     54   9  16 SW5       30.31S
HESPERIA         N/A     54  16  22 W1        30.45R
APPLE VALLEY     N/A     49  14  24 CALM      30.35R
PALMDALE       CLEAR     48  14  25 SW8       30.31R
LANCASTER      CLEAR     42  10  27 W5        30.31R
EDWARDS AFB    CLEAR     43   3  19 CALM      30.29R
DAGGETT        CLEAR     53   6  15 CALM      30.30R
29 PALMS N     CLEAR     58  16  19 CALM      30.34R
NEEDLES        CLEAR     59  15  18 W8        30.22S

$$

REGIONAL REPORTS

CITY           SKY/WX    TMP DP  RH WIND       PRES   REMARKS
SANTA BARBARA  CLEAR     56  34  43 CALM      30.13R
SANDBERG       CLEAR     64  14  14 NE10      30.37S
MT. WILSON       N/A     59  -2   8 MISG        N/A
LAS VEGAS NV   CLEAR     55  16  21 SW8       30.27R
PHOENIX AZ     CLEAR     62  22  21 CALM      30.17S
TIJUANA        CLEAR     63  27  25 CALM      30.15S
ENSENADA NW      N/A     80  32  17 NE1       30.06S

$$

OFFSHORE ISLANDS

CITY           SKY/WX    TMP DP  RH WIND       PRES   REMARKS
CATALINA ARPT  CLEAR    N/A N/A N/A N5        30.20S
SAN NICOLAS IS CLEAR    N/A N/A N/A W10       30.15S

$$

MARINE AND OFFSHORE BUOY REPORTS

STATION/POSITION SKY/WX   TEMP    WIND        PRES    SWELL
                          AIR SEA DIR/SP/G            HT/PER/DIR
                          (F)     (DEG/KT/KT) (MB)    (FT/S/D)
TANNER BANKS               64 65  340/ 10/ 10 1020.2F   3/320/12
S CLEMENTE BASIN           66 66  320/  8/  8 1019.8S   3/300/13
SAN NICOLAS IS.               63                N/A     3/300/12
SO. S. ROSA ISLA           63 63  320/ 12/ 16 1020.1S   3/12
W. S. BARBARA CH           65 63  320/ 17/ 19 1019.9R   3/300/12
M. S. BARBARA CH           65 66  230/  4/  6 1020.6F
S. MONICA BASIN            66 66  320/  8/  8 1020.7S   2/230/12
S PEDRO CHANNEL               65                N/A     2/270/13
DANA POINT                    66                N/A     2/270/13
CMP PENDLETON NS              65                N/A
OCEANSIDE OFFSHR              66                N/A     2/250/13
TORREY PINES OTR              66                N/A     2/280/13
LA JOLLA 1                 71 65  150/  2/  3 1019.9S
MISSION BAY BUOY              66                N/A     2/270/12
SAN DIEGO BAY                 67              1020.3R
POINT LOMA SOUTH              67                N/A     2/270/13

$$



USA.gov is the U.S. government's official web portal to all federal, state and local government web resources and services.